[[{"header":{"parameterUnit":"m.s-1","parameterCategory":1,"la1":30.2992,"la2":30.254,"lo1":-89.0895,"lo2":-89.0443,"dy":0.0025,"dx":0.0025,"nx":19,"ny":19,"refTime":"2026-04-30T03:00:00:Z","depth":0,"parameterNumber":2,"parameterNumberName":"U-component_of_WINDS"},"data":[0,0,0,-6.1466,-6.1471,-6.1676,-6.1677,-6.1956,-6.1959,0,0,0,0,0,0,0,0,0,0,0,-6.1416,-6.1418,-6.1466,-6.1471,-6.1676,-6.1677,-6.1956,-6.1959,0,0,0,0,0,0,0,0,0,0,0,-6.1415,-6.1417,-6.142,-6.1472,-6.1676,-6.1677,-6.1955,-6.1794,0,0,0,0,0,0,0,0,0,0,-6.1592,-6.1555,-6.1417,-6.142,-6.1473,-6.1676,-6.1677,-6.1786,-6.1804,-6.187,0,-6.1932,0,-6.195,-6.1979,-6.198,0,0,0,-6.1464,-6.1541,-6.1587,-6.1421,-6.1475,-6.1676,-6.1582,-6.1796,-6.1817,-6.1895,-6.1936,-6.1946,-6.1955,-6.198,-6.1982,-6.2391,-6.2394,0,0,-6.1452,-6.1458,-6.1573,-6.16,-6.157,-6.1575,-6.1588,-6.1808,-6.1854,-6.1937,-6.1952,-6.1959,-6.1982,-6.1985,-6.2389,-6.2392,0,0,0,-6.1425,-6.1451,-6.1491,-6.1589,-6.1625,-6.1581,-6.1596,-6.1844,-6.1856,-6.1955,-6.1963,-6.1984,-6.1988,-6.2387,-6.239,-6.251,0,0,0,-6.1418,-6.1435,-6.1486,-6.1492,-6.1621,-6.1737,-6.1627,-6.1841,-6.1866,-6.1961,-6.1984,-6.1991,-6.2384,-6.2389,-6.2501,-6.2566,0,0,0,-6.1399,-6.1432,-6.1465,-6.1492,-6.158,-6.1733,-6.1759,-6.1846,-6.1871,-6.198,-6.1991,-6.2382,-6.2388,-6.2493,-6.2553,-6.2677,0,0,0,-6.138,-6.1568,-6.1467,-6.168,-6.1579,-6.1806,-6.1757,-6.1926,-6.2033,-6.1986,-6.2385,-6.239,-6.2491,-6.2545,-6.2668,-6.2783,-6.2831,0,0,-6.162,-6.1597,-6.1721,-6.1638,-6.1884,-6.1774,-6.2038,-6.213,-6.2134,-6.2305,-6.2315,-6.2504,-6.2552,-6.2675,-6.3095,-6.3133,0,0,0,-6.1799,-6.1889,-6.1953,-6.2056,-6.2132,-6.2202,-6.2253,-6.2288,-6.2433,-6.2224,-6.2581,-6.261,-6.2681,-6.2736,-6.2768,-6.2831,-6.2415,-6.2414,-6.2414,-6.2147,-6.2144,-6.235,-6.2372,-6.2473,-6.2525,-6.2606,-6.2661,-6.2627,-6.2712,-6.2763,-6.3018,-6.3082,-6.3106,-6.3171,-6.2822,-6.2822,-6.2823,-6.2823,-6.2499,-6.2627,-6.2579,-6.2762,-6.2757,-6.2911,-6.2968,-6.2939,-6.3082,-6.2979,-6.3042,-6.2931,-6.3148,-6.3205,-6.2832,-6.283,-6.2829,-6.2828,-6.2828,-6.2728,-6.2789,-6.2828,-6.2978,-6.3094,-6.3109,-6.3249,-6.3239,-6.3231,-6.3293,-6.3347,-6.3345,-6.3343,-6.3319,-6.332,-6.3321,-6.3322,-6.3323,-6.3323,-6.2951,-6.2991,-6.3111,-6.3208,-6.3274,-6.3359,-6.3414,-6.3478,-6.3547,-6.3529,-6.353,-6.3489,-6.317,-6.3091,-6.3337,-6.3334,-6.3333,-6.3331,-6.333,-6.3312,-6.3229,-6.3413,-6.348,-6.3594,-6.3711,-6.3696,-6.3829,-6.3881,-6.3951,-6.3896,-6.3662,-6.3637,-6.3611,-6.3546,-6.3895,-6.3895,-6.3895,-6.3895,-6.3506,-6.3492,-6.368,-6.3787,-6.389,-6.3897,-6.4107,-6.4152,-6.4185,-6.4217,-6.4165,-6.4077,-6.4051,-6.4042,-6.4006,-6.3946,-6.4389,-6.4389,-6.4389,-6.3728,-6.3725,-6.3906,-6.3937,-6.4026,-6.4103,-6.4301,-6.4426,-6.4446,-6.4409,-6.4242,-6.4222,-6.4079,-6.4033,-6.3993,-6.3939,-6.3827,0,0]},{"header":{"parameterUnit":"m.s-1","parameterCategory":1,"la1":30.2992,"la2":30.254,"lo1":-89.0895,"lo2":-89.0443,"dy":0.0025,"dx":0.0025,"nx":19,"ny":19,"refTime":"2026-04-30T03:00:00:Z","depth":0,"parameterNumber":3,"parameterNumberName":"V-component_of_WINDS"},"data":[0,0,0,-4.8925,-4.8926,-4.8953,-4.8953,-4.8998,-4.8999,0,0,0,0,0,0,0,0,0,0,0,-4.8925,-4.8925,-4.8925,-4.8926,-4.8953,-4.8953,-4.8998,-4.8999,0,0,0,0,0,0,0,0,0,0,0,-4.8924,-4.8925,-4.8926,-4.8926,-4.8953,-4.8953,-4.8998,-4.8973,0,0,0,0,0,0,0,0,0,0,-4.8945,-4.8953,-4.8925,-4.8926,-4.8926,-4.8953,-4.8953,-4.8972,-4.8975,-4.8991,0,-4.9008,0,-4.9004,-4.9002,-4.9003,0,0,0,-4.892,-4.8951,-4.8951,-4.8926,-4.8927,-4.8953,-4.8939,-4.8974,-4.8977,-4.8995,-4.9008,-4.901,-4.9005,-4.9003,-4.9003,-4.9115,-4.9115,0,0,-4.8918,-4.8934,-4.8949,-4.8953,-4.8951,-4.8938,-4.894,-4.8975,-4.8991,-4.9009,-4.9011,-4.9006,-4.9003,-4.9004,-4.9114,-4.9115,0,0,0,-4.8918,-4.8933,-4.8932,-4.8952,-4.8956,-4.8939,-4.8941,-4.899,-4.8988,-4.9011,-4.9006,-4.9004,-4.9004,-4.9113,-4.9114,-4.9168,0,0,0,-4.8917,-4.8933,-4.8932,-4.8941,-4.8956,-4.8974,-4.8955,-4.8986,-4.8989,-4.9006,-4.9004,-4.9005,-4.9112,-4.9114,-4.9164,-4.919,0,0,0,-4.892,-4.8933,-4.894,-4.8942,-4.8955,-4.8973,-4.8973,-4.8986,-4.8986,-4.9003,-4.9005,-4.9112,-4.9113,-4.9161,-4.9185,-4.9222,0,0,0,-4.8928,-4.8988,-4.8941,-4.9006,-4.8955,-4.9006,-4.8973,-4.901,-4.9031,-4.9004,-4.9112,-4.9114,-4.916,-4.9182,-4.9219,-4.9255,-4.9272,0,0,-4.9013,-4.8999,-4.9036,-4.8994,-4.9058,-4.9001,-4.9072,-4.9076,-4.9064,-4.9098,-4.91,-4.9165,-4.9185,-4.9222,-4.9365,-4.9379,0,0,0,-4.9068,-4.9094,-4.9108,-4.9128,-4.9132,-4.9137,-4.9129,-4.913,-4.9158,-4.9085,-4.9189,-4.92,-4.9221,-4.9238,-4.9249,-4.9265,-4.9123,-4.9123,-4.9123,-4.9209,-4.9189,-4.9247,-4.923,-4.925,-4.9239,-4.9252,-4.9252,-4.9227,-4.9252,-4.9261,-4.9351,-4.9371,-4.9379,-4.9396,-4.928,-4.928,-4.9281,-4.9281,-4.9329,-4.9362,-4.9325,-4.9369,-4.9347,-4.9383,-4.9374,-4.9354,-4.9383,-4.9343,-4.936,-4.9316,-4.9395,-4.9408,-4.9285,-4.9284,-4.9283,-4.9283,-4.9283,-4.9418,-4.943,-4.943,-4.9455,-4.9476,-4.9456,-4.9484,-4.9464,-4.9444,-4.9462,-4.9468,-4.9467,-4.9461,-4.9466,-4.9467,-4.9467,-4.9467,-4.9467,-4.9467,-4.951,-4.9508,-4.9535,-4.9543,-4.9551,-4.9559,-4.9548,-4.9555,-4.9558,-4.954,-4.954,-4.9511,-4.9407,-4.938,-4.9472,-4.9471,-4.9471,-4.947,-4.947,-4.9636,-4.9604,-4.9646,-4.9654,-4.9659,-4.968,-4.9653,-4.9669,-4.9672,-4.9686,-4.9653,-4.958,-4.9565,-4.9556,-4.9533,-4.9659,-4.9659,-4.9659,-4.9659,-4.971,-4.97,-4.9736,-4.975,-4.9762,-4.974,-4.9786,-4.9776,-4.9762,-4.9762,-4.9741,-4.9709,-4.9701,-4.969,-4.9678,-4.9657,-4.9811,-4.9811,-4.9811,-4.9785,-4.9775,-4.9818,-4.9803,-4.9805,-4.9807,-4.9848,-4.9864,-4.9841,-4.9817,-4.9761,-4.9754,-4.9704,-4.9689,-4.9663,-4.9644,-4.9605,0,0]}]]